EW2270 Weather Reports


time (UTC)temp
F
wind
direction
speed
knots
gust
knots
rain 1hr
in
rain 24hr
in
rain mn
in
humidity
%
barometer
mb
20260504194531 77 265 3.5 7.8 0.00 0.00 0.00 36 1007.0
20260504193024 77 286 2.6 9.6 0.00 0.00 0.00 34 1007.1
20260504191532 76 284 1.7 7.0 0.00 0.00 0.00 37 1007.1
20260504190020 75 160 0.9 8.7 0.00 0.00 0.00 35 1007.3
20260504184519 74 259 0.9 7.0 0.00 0.00 0.00 38 1007.4
20260504183017 74 266 3.5 7.0 0.00 0.00 0.00 36 1007.5
20260504181518 74 225 3.5 7.0 0.00 0.00 0.00 37 1007.6
20260504180016 72 262 2.6 5.2 0.00 0.00 0.00 40 1007.7
20260504174512 72 272 3.5 7.8 0.00 0.00 0.00 38 1007.7
20260504173011 71 292 3.5 7.0 0.00 0.00 0.00 41 1007.7
20260504171608 70 262 1.7 6.1 0.00 0.00 0.00 41 1007.7
20260504081558 51 99 1.7 1.7 0.00 0.00 0.00 78 1007.4
20260504080114 53 79 0.9 2.6 0.00 0.00 0.00 77 1007.6
20260504044541 57 207 2.6 5.2 0.00 0.00 0.00 71 1007.6
20260504043038 57 204 2.6 4.3 0.00 0.00 0.00 72 1007.4
20260504041538 56 110 0.9 1.7 0.00 0.00 0.00 76 1007.3
20260504040059 58 110 0.9 3.5 0.00 0.00 0.00 72 1007.2
20260504034538 58 142 0.9 1.7 0.00 0.00 0.00 72 1007.1
20260504033037 61 143 0.0 0.9 0.00 0.00 0.00 67 1006.9
20260504031537 64 143 0.9 2.6 0.00 0.00 0.00 65 1006.8
20260504030035 71 113 0.9 2.6 0.00 0.00 0.00 50 1006.8
20260504024534 74 101 1.7 2.6 0.00 0.00 0.00 44 1006.8
20260504023033 76 356 0.0 1.7 0.00 0.00 0.00 40 1006.8
20260504021532 77 11 0.9 4.3 0.00 0.00 0.00 39 1006.9
20260504020030 78 18 2.6 4.3 0.00 0.00 0.00 37 1007.1
20260504014529 79 345 3.5 7.0 0.00 0.00 0.00 35 1007.2
20260504013028 79 18 4.3 7.0 0.00 0.00 0.00 34 1007.4
20260504011526 79 345 5.2 8.7 0.00 0.00 0.00 32 1007.5
20260504010025 80 7 6.1 9.6 0.00 0.00 0.00 28 1007.6
20260504004537 80 10 6.1 9.6 0.00 0.00 0.00 30 1007.8
20260504003021 80 50 7.0 9.6 0.00 0.00 0.00 30 1007.9
20260504001521 80 36 7.8 13.9 0.00 0.00 0.00 30 1008.1
20260504000020 80 4 7.8 12.2 0.00 0.00 0.00 27 1008.1
20260503234518 80 31 8.7 13.0 0.00 0.00 0.00 26 1008.4
20260503233020 80 11 8.7 13.9 0.00 0.00 0.00 28 1008.4
20260503231515 81 13 7.0 12.2 0.00 0.00 0.00 28 1008.6
20260503230014 80 20 8.7 13.9 0.00 0.00 0.00 28 1008.6
20260503224512 81 30 6.1 11.3 0.00 0.00 0.00 28 1008.8
20260503223009 80 26 5.2 10.4 0.00 0.00 0.00 25 1009.0
20260503221510 80 27 8.7 13.0 0.00 0.00 0.00 26 1009.2
20260503220004 80 356 6.1 10.4 0.00 0.00 0.00 29 1009.4
20260503214503 80 8 4.3 8.7 0.00 0.00 0.00 36 1009.5
20260503213058 80 34 4.3 9.6 0.00 0.00 0.00 33 1009.7
20260503211558 80 29 5.2 9.6 0.00 0.00 0.00 32 1009.9
20260503210055 80 43 4.3 7.8 0.00 0.00 0.00 34 1010.1
20260503204553 80 340 1.7 5.2 0.00 0.00 0.00 34 1010.2
20260503203051 80 219 0.9 5.2 0.00 0.00 0.00 34 1010.4
20260503201549 81 134 0.0 1.7 0.00 0.00 0.00 35 1010.7
20260503200050 78 283 0.9 4.3 0.00 0.00 0.00 39 1010.9